Simultaneous Nadir Overpasses (SNOs) Predictions

Prediction of SNOs between METOP-A and NPP Satellite Orbit:

Table of predicted SNOs for the next 14.0 days since TLE Epoch: 7/12/2019
Index Date (METOP-A) Time (METOP-A) Lat,Lon (METOP-A) SZA (METOP-A ) Date (NPP) Time (NPP) Lat,Lon (NPP) SZA (NPP ) Distance(km) Time Diff (sec)
1 07/19/2019 19:16:40 75.07,-119.14 54.55 07/19/2019 19:15:35 75.07,-122.60 54.81 99.22 65
2 07/19/2019 20:07:24 -74.96, 47.88 125.54 07/19/2019 20:06:17 -74.97, 44.99 125.30 83.32 67
3 07/19/2019 20:58:08 74.76,-145.33 54.31 07/19/2019 20:56:58 74.74,-147.04 54.43 50.00 70
4 07/19/2019 21:48:52 -74.65, 21.70 125.77 07/19/2019 21:47:40 -74.64, 20.54 125.68 34.28 72
5 07/19/2019 22:39:36 74.45,-171.49 54.07 07/19/2019 22:38:22 74.45,-171.65 54.11 4.57 74
6 07/19/2019 23:30:18 -74.44, -4.19 125.93 07/19/2019 23:29:05 -74.41, -4.20 125.94 3.55 73
7 07/20/2019 00:20:57 74.43, 163.12 54.07 07/20/2019 00:19:50 74.41, 163.10 54.08 2.08 67
8 07/20/2019 01:11:39 -74.42, -29.58 125.93 07/20/2019 01:10:34 -74.41, -29.59 125.92 1.03 65
9 07/20/2019 02:02:19 74.41, 137.73 54.07 07/20/2019 02:01:20 74.41, 137.71 54.09 0.70 59
10 07/20/2019 02:53:01 -74.40, -54.97 125.93 07/20/2019 02:52:04 -74.41, -54.97 125.90 1.51 57
11 07/20/2019 03:43:41 74.39, 112.34 54.07 07/20/2019 03:42:50 74.42, 112.33 54.11 3.13 51
12 07/20/2019 04:34:22 -74.43, -80.23 125.90 07/20/2019 04:33:34 -74.42, -80.36 125.89 3.91 48
13 07/20/2019 05:25:03 74.37, 86.95 54.07 07/20/2019 05:24:19 74.37, 87.07 54.07 3.62 44
14 07/20/2019 06:15:44 -74.41,-105.62 125.90 07/20/2019 06:15:04 -74.42,-105.74 125.87 3.70 40
15 07/20/2019 07:06:24 74.40, 61.68 54.10 07/20/2019 07:05:49 74.38, 61.68 54.09 2.66 35
16 07/20/2019 07:57:06 -74.39,-131.01 125.90 07/20/2019 07:56:33 -74.38,-131.00 125.91 1.79 33
17 07/20/2019 08:47:46 74.38, 36.30 54.10 07/20/2019 08:47:19 74.38, 36.30 54.11 0.14 27
18 07/20/2019 09:38:28 -74.37,-156.40 125.90 07/20/2019 09:38:03 -74.38,-156.38 125.89 0.91 25
19 07/20/2019 10:29:08 74.36, 10.91 54.10 07/20/2019 10:28:49 74.39, 10.91 54.13 2.48 19
20 07/20/2019 11:19:50 -74.36, 178.21 125.90 07/20/2019 11:19:33 -74.38, 178.23 125.87 3.36 17
21 07/20/2019 12:10:29 74.39, -14.36 54.14 07/20/2019 12:10:19 74.39, -14.47 54.14 3.44 10
22 07/20/2019 13:01:11 -74.39, 152.95 125.87 07/20/2019 13:01:03 -74.39, 152.85 125.85 3.05 8
23 07/20/2019 13:51:51 74.37, -39.75 54.14 07/20/2019 13:51:48 74.34, -39.73 54.11 3.34 3
24 07/20/2019 14:42:33 -74.37, 127.56 125.87 07/20/2019 14:42:32 -74.34, 127.59 125.89 2.63 1
25 07/20/2019 15:33:13 74.36, -65.14 54.13 07/20/2019 15:33:18 74.35, -65.11 54.12 0.96 5
26 07/20/2019 16:23:55 -74.35, 102.17 125.87 07/20/2019 16:24:02 -74.35, 102.20 125.87 0.97 7
27 07/20/2019 17:14:35 74.34, -90.52 54.13 07/20/2019 17:14:48 74.35, -90.50 54.14 1.97 13
28 07/20/2019 18:05:17 -74.33, 76.78 125.87 07/20/2019 18:05:32 -74.35, 76.82 125.86 2.79 15
29 07/20/2019 18:55:56 74.37,-115.79 54.17 07/20/2019 18:56:18 74.36,-115.89 54.16 3.09 22
30 07/20/2019 19:46:38 -74.36, 51.52 125.83 07/20/2019 19:47:02 -74.36, 51.43 125.84 2.56 24
31 07/20/2019 20:37:18 74.35,-141.18 54.17 07/20/2019 20:37:48 74.36,-141.27 54.18 3.15 30
32 07/20/2019 21:28:00 -74.34, 26.13 125.84 07/20/2019 21:28:32 -74.36, 26.05 125.82 3.28 32
33 07/20/2019 22:18:40 74.33,-166.57 54.17 07/20/2019 22:19:17 74.32,-166.53 54.14 1.78 37
34 07/20/2019 23:09:22 -74.32, 0.74 125.84 07/20/2019 23:10:01 -74.32, 0.79 125.86 1.60 39
35 07/21/2019 00:00:02 74.31, 168.04 54.16 07/21/2019 00:00:47 74.32, 168.09 54.16 1.72 45
36 07/21/2019 00:50:44 -74.30, -24.65 125.84 07/21/2019 00:51:31 -74.32, -24.60 125.84 2.41 47
37 07/21/2019 01:41:23 74.34, 142.78 54.20 07/21/2019 01:42:17 74.32, 142.70 54.18 2.94 54
38 07/21/2019 02:32:05 -74.33, -49.91 125.80 07/21/2019 02:33:01 -74.32, -49.98 125.82 2.33 56
39 07/21/2019 03:22:45 74.32, 117.39 54.20 07/21/2019 03:23:47 74.33, 117.32 54.20 2.43 62
40 07/21/2019 04:13:27 -74.31, -75.30 125.80 07/21/2019 04:14:31 -74.33, -75.37 125.80 2.45 64
41 07/21/2019 05:04:07 74.30, 92.00 54.20 07/21/2019 05:05:16 74.28, 92.06 54.16 2.58 69
42 07/21/2019 05:54:49 -74.30,-100.69 125.80 07/21/2019 05:56:00 -74.28,-100.62 125.84 2.37 71
43 07/21/2019 06:45:32 74.13, 66.25 54.08 07/21/2019 06:46:44 74.19, 66.92 54.06 21.37 72
44 07/21/2019 07:36:15 -74.08,-126.56 125.96 07/21/2019 07:37:27 -74.14,-125.64 125.99 28.93 72
45 07/21/2019 08:27:00 73.82, 40.15 53.85 07/21/2019 08:28:08 73.90, 42.27 53.74 66.25 68
46 07/21/2019 09:17:43 -73.76,-152.65 126.19 07/21/2019 09:18:50 -73.80,-150.18 126.36 76.99 67




NCC Satellite Simultaneous Nadir Overpasses (SNOs) Prediction Service
